weather.gov     
National Weather Service

Regional Weather Roundup
NWS Homepage
This page is being discontinued on March 12, 2014.
The same data is available at this site. Please update your bookmarks.
Thank you, and we apologize for the inconvenience.
Please send an email to SR-SRH.Webmaster@noaa.gov with any concerns.


Current Version
Previous Version:    01  02  03  04  05  06  07  08  09  10  11  12  13  14  15  16  17  18  19  20  21  22  23  24  25  26  27  28  29  30  
   31  32  33  34  35  36  37  38  39  40  41  42  43  44  45  46  47  48  49  50  51  52  53  54  
[Printable]
687
ASUS45 KPSR 181310
RWRAZ

ARIZONA REGIONAL HOURLY WEATHER ROUNDUP
NATIONAL WEATHER SERVICE PHOENIX AZ
600 AM MST FRI APR 18 2014

NOTE: FAIR INDICATES FEW OR NO CLOUDS BELOW 12,000 FEET WITH NO
SIGNIFICANT WEATHER AND/OR OBSTRUCTIONS TO VISIBILITY.

AZZ001>003-036-181400-
NORTHWEST ARIZONA

CITY           SKY/WX    TMP DP  RH WIND       PRES   REMARKS
BULLHEAD CITY  MOCLDY    68  28  22 CALM      29.79R
KINGMAN        MOCLDY    60  20  21 SE13G24   29.89S
$$

AZZ004>008-015-016-018-181400-
NORTH CENTRAL ARIZONA

CITY           SKY/WX    TMP DP  RH WIND       PRES   REMARKS
GRAND CANYON   MOCLDY    30  16  56 CALM      30.07S
WILLIAMS       CLOUDY    43  16  33 SE7       30.13S
PRESCOTT       CLOUDY    53  22  29 SE6       30.01R
FLAGSTAFF      CLOUDY    34  21  59 CALM      30.10R
PAYSON         CLOUDY    52  19  28 CALM      30.04R
PAGE           CLOUDY    56  22  26 CALM      29.96R
$$

AZZ009>014-017-181400-
NORTHEAST ARIZONA

CITY           SKY/WX    TMP DP  RH WIND       PRES   REMARKS
WINSLOW        CLOUDY    47  22  37 SE9       30.03S
SAINT JOHNS    MOCLDY    41  17  38 CALM      30.07R
WINDOW ROCK    CLEAR     28  15  58 S5        30.15R WCI  23
SHOW LOW       CLOUDY    39  14  35 CALM      30.11S
$$

AZZ023-181400-
GREATER PHOENIX AREA

CITY           SKY/WX    TMP DP  RH WIND       PRES   REMARKS
PHOENIX        CLOUDY    71  36  27 SE3       29.85R
BUCKEYE          N/A     66  30  26 E6        29.85R
GLENDALE       CLOUDY    66  36  32 CALM      29.87
LUKE AFB       NOT AVBL
DEER VALLEY    CLOUDY    65  29  25 CALM      29.86R
SCOTTSDALE     CLOUDY    66  37  34 CALM      29.88R
MESA-FALCON    MOCLDY    64  32  29 CALM      29.86
MESA-GATEWAY   MOCLDY    63  34  34 SE3       29.88R
CHANDLER       MOCLDY    64  37  36 E6        29.86
$$

AZZ027-028-181400-
SOUTHWEST MARICOPA COUNTY AND PINAL COUNTY

CITY           SKY/WX    TMP DP  RH WIND       PRES   REMARKS
CASA GRANDE    CLOUDY    64  28  25 CALM      29.89R
$$

AZZ503-504-507>509-181400-
SOUTHEAST ARIZONA

CITY           SKY/WX    TMP DP  RH WIND       PRES   REMARKS
TUCSON         CLOUDY    64  34  32 S6        29.96R
DAVIS-MONTHAN  CLOUDY    65  39  38 S7        29.94R
RYAN FIELD       N/A     64  32  29 MISG      29.94
NOGALES        CLOUDY    59  38  45 E6        30.01R
SIERRA VISTA   CLOUDY    61  25  25 S5        30.02R
DOUGLAS        CLOUDY    58  20  22 SE8       30.01R
SAFFORD        CLOUDY    68  24  19 SE15      29.95R
$$

AZZ020-021-025-026-031-181400-
SOUTHWEST ARIZONA

CITY           SKY/WX    TMP DP  RH WIND       PRES   REMARKS
YUMA           CLOUDY    71  51  49 S8        29.79R
$$

CAZ031-033-041-043-047-048-061-181400-
SOUTHERN CALIFORNIA

CITY           SKY/WX    TMP DP  RH WIND       PRES   REMARKS
DOWNTOWN L.A.  CLOUDY    61  51  70 SE5       29.87S
L.A. AIRPORT   MOCLDY    62  51  67 SE6       29.88S
SAN DIEGO      CLOUDY    63  52  67 CALM      29.88R
BURBANK        CLOUDY    58  53  84 S5        29.87S
ONTARIO        CLOUDY    59  53  80 W6        29.86S
RIVERSIDE      CLOUDY    60  53  77 CALM      29.86R
PALM SPRINGS   CLOUDY    66  53  63 SE3       29.80R
EL CENTRO NAS  CLOUDY    64  54  69 CALM      29.76R
IMPERIAL       CLOUDY    66  53  63 SE7       29.76R
BLYTHE         CLOUDY    68  42  38 SW5       29.79R
NEEDLES        MOCLDY    73  25  16 SW5       29.78S
$$

NVZ020-UTZ003-181400-
SOUTHERN NEVADA-UTAH

CITY           SKY/WX    TMP DP  RH WIND       PRES   REMARKS
LAS VEGAS      CLOUDY    70  24  17 S7        29.76R
SALT LAKE CITY CLOUDY    63  23  21 S20       29.82R
$$

NMZ009-TXZ055-181400-
NEW MEXICO-WEST TEXAS

CITY           SKY/WX    TMP DP  RH WIND       PRES   REMARKS
ALBUQUERQUE    PTCLDY    46  27  47 N7        30.16R
EL PASO        MOCLDY    54  42  64 NE8       30.11R
$$


........................KEY........................
SKY/WX - SKY CONDITION/WEATHER
TMP    - TEMPERATURE IN FAHRENHEIT
DP     - DEW POINT IN FAHRENHEIT
RH     - RELATIVE HUMIDITY IN PERCENT
WIND   - DIRECTION AND SPEED IN MILES PER HOUR (MPH)
VRB    - VARIABLE WIND DIRECTION
PRES   - MEAN SEA LEVEL PRESSURE IN INCHES OF MERCURY
         F - FALLING PRESSURE   R - RISING PRESSURE
         S - STEADY PRESSURE
VSB    - VISIBILITY IN MILES
HX     - HEAT INDEX IN FAHRENHEIT
WCI    - WIND CHILL INDEX IN FAHRENHEIT
TC     - TEMPERATURE IN CELSIUS WHICH IS ALSO KNOWN AS
         TEMPERATURE IN CENTIGRADE
AFB    - AIR FORCE BASE
         LUKE AFB IS LUKE AIR FORCE BASE
         DAVIS-MONTHAN IS DAVIS-MONTHAN AIR FORCE BASE
NAS    - NAVAL AIR STATION
         EL CENTRO NAS IS EL CENTRO NAVAL AIR STATION
N/A    - NOT AVAILABLE




U.S. Dept. of Commerce
NOAA National Weather Service
1325 East West Highway
Silver Spring, MD 20910
E-mail: w-nws.webmaster@noaa.gov
Page last modified: May 16, 2007
NATIONAL WEATHER SERVICE: for Safety, for Work, for Fun - FOR LIFE